CZ-11 R/B, 43161

Orbit data source: Space-Track

CZ-11 R/B, 43161 is space debris in SSO originally from a launch on Fri, 19 Jan 2018 UTC launched from the Jiuquan Satellite Launch Center, China (JSC). Debris objects in space refer to the collection of defunct objects orbiting the Earth. Examples of debris include non-operational satellites, rocket bodies, and fragments generated from explosions, collisions, or faulty payload assembly.

Loading next visibility...
Identifier
43161, 2018-008G
Orbit
SSO
Country
Flag of CNCN / PRC
Related business
Manufacturer
CALT
Mission
Spacecraft
Bus & Motor
CZ-11-4, Unknown motor
Mass
500 kg wet, 500 kg dry
Launch date (UTC)
2018-01-19 (8 years ago)
Launch vehicle
Unknown
Launch site
Jiuquan Satellite Launch Center, China (JSC)
Object type
Payload
Rocket body
Debris
Shape & HBR
Cyl, 0.8 m
Radar Cross Section
2.651 m², Large (>1 m²)

Expand to show TLE details & history
Last TLE update: 12 hours ago

TLE from 12 hours ago
0 CZ-11 R/B
1 43161U 18008G   25302.47490473  .00001537  00000-0  28265-3 0  9994
2 43161  98.2251 293.5598 0365215  58.9178 304.7312 14.31879691405643
Epoch: 2025-10-29T11:23Z
TLE epoch observation values (Epoch: 2025-10-29T11:23:51.768Z)
Latitude
-0.00001°
Longitude
84.54659°
Altitude
645.975 km
Speed
7.609 km/s
True Right ascension
19h 34m 14s
True Declination
0° 00' 00"
Sunlit
Object was in daylight at epoch
Visualization orbit readout
Latitude
Unknown
Longitude
Unknown
Altitude
Unknown
Speed
Unknown
Apparent Right ascension
Unknown
Apparent Declination
Unknown
Sunlit
N/A
Visualization observer readout
Local Sidereal Time
18:57:38
Azimuth
Unknown
Elevation
Unknown
Doppler factor
Unknown
Orbital elements
Apogee altitude
1,044.089 km
Perigee altitude
521.049 km
Semi-major axis
7,160.706 km
Eccentricity
0.03652
Inclination
98.2251°
RAAN
293.5598°
Arg. of periapsis
58.9178°
True anomaly
301.20228°
Mean anomaly
304.7312°
Eccentric anomaly
302.97578°
Mean motion
3.58187 °/min
Orbital period
100.51 mins
BSTAR
0.00028265
Loading maneuver chart data...
Computing Atmospheric mass density...
Loading historical data...
Loading historical data...
Loading historical data...
Loading historical data...
Loading historical data...
Loading historical data...
Loading historical data...

Documentation

Showing up to 5 results
|